KLEMETTI Weather Reports


time (UTC)temp
C
wind
direction
speed
KPH
gust
KPH
rain 1hr
cm
rain 24hr
cm
rain mn
cm
humidity
%
barometer
mb
20260507112728 7 275 17.7 27.4 0.00 0.00 0.00 70 1015.7
20260507110729 7 276 16.1 24.1 0.00 0.00 0.00 69 1015.6
20260507104728 8 228 17.7 29.0 0.00 0.00 0.00 60 1015.6
20260507102728 7 252 27.4 35.4 0.00 0.00 0.00 61 1015.5
20260507100728 8 237 24.1 35.4 0.00 0.00 0.00 57 1015.3
20260507094729 9 240 17.7 27.4 0.00 0.00 0.00 50 1015.2
20260507092729 8 238 19.3 27.4 0.00 0.00 0.00 54 1015.3
20260507090729 8 256 17.7 25.7 0.00 0.00 0.00 47 1015.4
20260507084728 7 220 17.7 29.0 0.00 0.00 0.00 43 1015.3
20260507082728 7 203 14.5 29.0 0.00 0.00 0.00 44 1015.4
20260507080728 7 139 9.7 20.9 0.00 0.00 0.00 44 1015.2
20260507074728 6 131 9.7 16.1 0.00 0.00 0.00 49 1015.1
20260507072728 6 108 9.7 16.1 0.00 0.00 0.00 52 1015.1
20260507070728 5 94 9.7 16.1 0.00 0.00 0.00 56 1015.3
20260507064728 5 101 8.0 12.9 0.00 0.00 0.00 57 1015.3
20260507062728 3 134 6.4 16.1 0.00 0.00 0.00 63 1015.3
20260507060728 3 150 8.0 19.3 0.00 0.00 0.00 66 1015.6
20260507054728 3 149 8.0 17.7 0.00 0.00 0.00 68 1015.3
20260507052728 3 189 8.0 20.9 0.00 0.00 0.00 69 1015.4
20260507050727 2 167 9.7 25.7 0.00 0.00 0.00 68 1015.2
20260507044728 2 156 11.3 17.7 0.00 0.00 0.00 70 1015.0
20260507042727 1 146 11.3 14.5 0.00 0.00 0.00 73 1014.8
20260507040729 1 154 9.7 14.5 0.00 0.00 0.00 77 1014.9
20260507034728 1 159 8.0 12.9 0.00 0.00 0.00 78 1014.8
20260507032728 1 161 6.4 11.3 0.00 0.00 0.00 79 1014.8
20260507030728 0 174 9.7 16.1 0.00 0.00 0.00 81 1014.8
20260507024727 0 164 9.7 14.5 0.00 0.00 0.00 83 1014.8
20260507022728 0 184 8.0 16.1 0.00 0.00 0.00 85 1014.7
20260507020727 -1 173 12.9 17.7 0.00 0.00 0.00 88 1014.8
20260507014727 0 154 6.4 9.7 0.00 0.00 0.00 86 1014.8
20260507012727 0 163 8.0 12.9 0.00 0.00 0.00 85 1014.7
20260507010727 0 179 12.9 20.9 0.00 0.00 0.00 84 1014.8
20260507004727 0 175 16.1 22.5 0.00 0.00 0.00 82 1014.8
20260507002727 0 182 14.5 25.7 0.00 0.00 0.00 82 1014.6
20260507000727 0 176 17.7 24.1 0.00 0.00 0.00 82 1014.6
20260506234728 1 177 14.5 19.3 0.00 0.00 0.00 82 1014.5
20260506232727 1 193 11.3 17.7 0.00 0.00 0.00 81 1014.5
20260506230728 1 185 14.5 20.9 0.00 0.00 0.00 81 1014.5
20260506224726 1 185 12.9 24.1 0.00 0.00 0.00 79 1014.6
20260506222727 2 188 12.9 19.3 0.00 0.00 0.00 78 1014.5
20260506220727 1 179 12.9 19.3 0.00 0.00 0.00 82 1014.3
20260506214727 1 163 6.4 14.5 0.00 0.00 0.00 81 1014.2
20260506212727 2 181 6.4 9.7 0.00 0.00 0.00 78 1014.0
20260506210727 2 210 6.4 9.7 0.00 0.00 0.00 74 1013.9
20260506204726 3 203 6.4 9.7 0.00 0.00 0.00 73 1013.9
20260506202726 3 206 8.0 12.9 0.00 0.00 0.00 69 1013.8
20260506200727 4 200 12.9 20.9 0.00 0.00 0.00 62 1013.6
20260506194726 4 197 12.9 19.3 0.00 0.00 0.00 61 1013.6
20260506192726 5 211 14.5 22.5 0.00 0.00 0.00 61 1013.5
20260506190726 5 205 9.7 17.7 0.00 0.00 0.00 60 1013.4
20260506184725 5 204 9.7 17.7 0.00 0.00 0.00 58 1013.4
20260506182726 5 219 16.1 25.7 0.00 0.00 0.00 56 1013.2
20260506180726 6 223 17.7 27.4 0.00 0.00 0.00 55 1013.0
20260506174726 6 232 19.3 30.6 0.00 0.00 0.00 57 1012.9
20260506172725 6 228 20.9 37.0 0.00 0.00 0.00 55 1012.8
20260506170726 7 235 17.7 29.0 0.00 0.00 0.00 51 1012.6
20260506164725 7 232 20.9 35.4 0.00 0.00 0.00 50 1012.5
20260506162726 7 235 24.1 37.0 0.00 0.00 0.00 49 1012.4
20260506160725 7 230 20.9 32.2 0.00 0.00 0.00 50 1012.4
20260506154726 7 227 20.9 33.8 0.00 0.00 0.00 47 1012.3
20260506152726 8 228 25.7 37.0 0.00 0.00 0.00 47 1012.3
20260506150725 8 232 24.1 37.0 0.00 0.00 0.00 47 1012.2
20260506144724 8 234 24.1 35.4 0.00 0.00 0.00 47 1012.2
20260506142725 8 222 25.7 40.2 0.00 0.00 0.00 48 1012.3
20260506140724 8 233 25.7 38.6 0.00 0.00 0.00 47 1012.2
20260506134725 8 241 22.5 33.8 0.00 0.00 0.00 47 1012.1
20260506132725 8 239 24.1 40.2 0.00 0.00 0.00 46 1012.0
20260506130724 8 239 25.7 37.0 0.00 0.00 0.00 48 1012.0
20260506124724 8 244 24.1 38.6 0.00 0.00 0.00 48 1012.0
20260506122724 8 241 27.4 40.2 0.00 0.00 0.00 47 1011.9
20260506120725 8 247 25.7 46.7 0.00 0.00 0.00 48 1011.8
20260506114725 7 254 27.4 38.6 0.00 0.00 0.00 46 1011.6